Location: Derby
(52.9213°N, 1.4761°W)
Time: 16:07:00
(UTC+01:00)

A-11 Canister half - Pass Details

Date: 19 May 2025
Orbit: 1524 x 1684 km, 47.3° (Epoch: 14 June)

Event Time Altitude Azimuth Distance (km) Brightness Sun altitude
Rises 00:38:28 0° 276° (W) 4,777 11.7 -17.1°
Reaches altitude 10° 00:41:35 10° 272° (W) 3,813 11.2 -17.2°
Maximum altitude 00:50:57 55° 199° (SSW) 1,912 9.1 -17.3°
Drops below altitude 10° 01:00:36 10° 125° (SE) 3,919 10.8 -17.3°
Sets 01:03:51 0° 122° (ESE) 4,918 11.3 -17.3°
